Regional Weather Roundup
Issued by NWS

Home | Current Version | Previous Version | Text Only | Print | Product List | Glossary Off
Versions: 1 2 3 4 5 6 7 8 9 10 11 12 13 14 15 16 17 18 19 20 21 22 23 24 25 26 27 28 29 30 31 32 33 34 35 36 37 38 39 40 41 42 43 44 45 46 47 48 49 50

000
ASUS43 KLOT 111303
RWRIL

ILLINOIS REGIONAL WEATHER ROUNDUP
NATIONAL WEATHER SERVICE CHICAGO/ROMEOVILLE IL
700 AM CST MON DEC 11 2017

NOTE: "FAIR" INDICATES FEW OR NO CLOUDS BELOW 12,000 FEET WITH NO
SIGNIFICANT WEATHER AND/OR OBSTRUCTIONS TO VISIBILITY.

* THESE STATIONS ARE NOT UNDER NWS QUALITY CONTROL. THEY ALSO MAY NOT
  REPORT WEATHER SUCH AS PRECIPITATION OR FOG.

ILZ001-002-007-009-015-016-024-111400-
NORTHWEST ILLINOIS

CITY           SKY/WX    TMP DP  RH WIND       PRES   REMARKS
MOLINE         CLOUDY    34  25  69 S8        29.84F WCI  27
STERLING*      CLOUDY    28  24  85 SE6       29.91F WCI  22
SAVANNA*       CLOUDY    28  23  83 SE7       29.88F WCI  20
$$

ILZ003-004-008-010-011-017-018-111400-
NORTH CENTRAL ILLINOIS

CITY           SKY/WX    TMP DP  RH WIND       PRES   REMARKS
ROCKFORD       CLOUDY    26  21  81 S7        29.94F WCI  18
FREEPORT*      CLOUDY    25  21  84 SE7       29.91F WCI  18
ROCHELLE*      CLOUDY    27  22  83 S10       29.93F WCI  17
DE KALB*       CLOUDY    25  22  89 S9        29.94F WCI  16
PERU*          CLOUDY    28  22  78 S6        29.95S WCI  22
$$

ILZ005-006-012>014-019>023-111400-
NORTHEAST ILLINOIS

CITY           SKY/WX    TMP DP  RH WIND       PRES   REMARKS
CHICAGO-OHARE  CLOUDY    28  20  71 S7        29.96S WCI  21
CHICAGO-MIDWAY CLOUDY    29  21  72 S9        29.97F WCI  20
AURORA         CLOUDY    26  22  84 S7        29.96F WCI  18
LANSING*       CLOUDY    27  23  84 S8        29.98F WCI  19
WAUKEGAN       CLOUDY    26  22  84 S8        29.94F FOG     WCI  18
DUPAGE AIRPORT CLOUDY    25  22  88 S8        29.95S WCI  16
KANKAKEE*      MOCLDY    26  22  82 S8        30.00F WCI  18
WHEELING       CLOUDY    29  22  75 S10       29.98S WCI  20
MORRIS*        MOCLDY    26  22  83 S6        29.97S WCI  20
ROMEOVILLE*    CLOUDY    26  23  86 S6        29.98S WCI  20
NORTHERLY ISL    N/A     28  19  69 S6          N/A  WCI  22
$$

LMZ740>746-111400-
SOUTHERN LAKE MICHIGAN

STATION/POSITION SKY/WX   TEMP    WIND        PRES    VSBY  WAVE
                          AIR SEA DIR/SP/G                  HT/PER
                          (F)     (DEG/KT/KT) (MB)    (MI)  (FT/S)
HARRISON CRIB              30     190/ 18/ 19   N/A
BURNHAM HARBOR             28     170/  6/ 12   N/A
CALUMET HARBOR             27     160/ 10/ 13 1014.5F
BURNS HARBOR               28     180/ 10/ 15 1015.6F
MICHIGAN CITY              28     160/  6/  9   N/A
$$

ILZ025>027-034>036-040-047-049-050-058-095>099-111400-
WEST-CENTRAL ILLINOIS

CITY           SKY/WX    TMP DP  RH WIND       PRES   REMARKS
QUINCY         PTCLDY    35  25  66 S8        29.90F WCI  29
GALESBURG*     PTCLDY    30  27  86 S7        29.90F WCI  24
MACOMB*        PTCLDY    31  26  80 S10       29.92F WCI  23
JACKSONVILLE*  CLOUDY    33  24  71 S9        29.95F WCI  25
PITTSFIELD*    CLOUDY    33  27  78 S5        29.94F WCI  28
$$

ILZ028>032-037-038-041>044-048-051>054-059>061-111400-
CENTRAL ILLINOIS

CITY           SKY/WX    TMP DP  RH WIND       PRES   REMARKS
PONTIAC        CLOUDY    29  26  90 S13       29.96F WCI  18
BLOOMINGTON    MOCLDY    27  23  85 S12       29.97F WCI  17
PEORIA         CLOUDY    29  24  82 S8        29.94F WCI  21
LACON*         CLOUDY    30  25  80 S9        29.91F WCI  22
LINCOLN*       PTCLDY    29  25  84 S7        29.97F WCI  22
SPRINGFIELD    CLOUDY    34  26  72 S14       29.97F WCI  25
TAYLORVILLE    PTCLDY    31  25  78 S7        29.99F WCI  24
$$

ILZ033-039-045-046-055>057-062-063-111400-
EAST-CENTRAL ILLINOIS

CITY           SKY/WX    TMP DP  RH WIND       PRES   REMARKS
CHAMPAIGN      CLOUDY    29  23  78 S10       30.01F WCI  20
DANVILLE*      CLOUDY    27  22  82 S7        30.01R WCI  19
RANTOUL*       CLOUDY    30  25  81 S9        30.00F WCI  21
MATTOON        CLOUDY    30  24  78 S8        30.02F WCI  22
PARIS*         CLOUDY    29  25  84 S8        30.04F WCI  21
$$

ILZ079-100>102-111400-
SOUTHWEST ILLINOIS

CITY           SKY/WX    TMP DP  RH WIND       PRES   REMARKS
ALTON          MOCLDY    28  25  86 S8        30.01F WCI  20
BELLEVILLE     CLOUDY    28  23  82 CALM      30.02F
CAHOKIA*       PTCLDY    26  22  84 CALM      30.02F
$$

ILZ064>066-069>071-074>076-080>082-084>086-088>090-092>094-111400-
SOUTH-CENTRAL ILLINOIS

CITY           SKY/WX    TMP DP  RH WIND       PRES   REMARKS
CARBONDALE     PTCLDY    27  26  96 SE5       30.07F WCI  22
CAIRO*         CLEAR     27  26  99 SE3       30.10F
EFFINGHAM*     CLOUDY    30  26  84 SE3       30.05F
MARION         PTCLDY    30  30 100 SE8       30.08S WCI  23
MT. VERNON     CLOUDY    25  24  96 SW3       30.05F
CENTRALIA*     CLOUDY    34  29  80 S10       30.03F WCI  26
SALEM*         CLOUDY    35  26  70 SE7       30.04F WCI  29
METROPOLIS*    CLEAR     25  24  94 CALM      30.10F
$$

ILZ067-068-072-073-078-083-087-091-111400-
SOUTHEAST ILLINOIS

CITY           SKY/WX    TMP DP  RH WIND       PRES   REMARKS
LAWRENCEVILLE  CLOUDY    29  25  85 S6        30.08F WCI  23
FLORA*         CLOUDY    30  26  86 CALM      30.06F
FAIRFIELD*     CLOUDY    30  26  86 CALM      30.05F
HARRISBURG*    CLOUDY    25  24  96 CALM      30.09S
ROBINSON*      CLOUDY    29  26  88 S3        30.08S
CARMI*         CLOUDY    28  27  96 S5        30.08S WCI  23
$$

ABBREVIATIONS USED IN REMARKS
   TC - TEMPERATURE IN CELSIUS
  WCI - WIND CHILL INDEX
   HX - HEAT INDEX
  VSB - VISIBILITY
$$





USA.gov is the U.S. government's official web portal to all federal, state and local government web resources and services.